Flag for Germany Weather past 2 weeks in Bernburg (Saale), Saxony-Anhalt, Germany

Now
57 °F

Overcast.


Feels Like: 57 °F
Forecast: 46 / 67 °F
Wind: 2 mph from Northwest

Location: Magdeburg

Current Time: May 27, 2015 at 6:47:45 PM

Latest Report: May 27, 2015 at 6:00 PM


Visibility: 31 mi

Pressure: 30.16 "Hg

Humidity: 50%

Dew point: 39 °F

Location of Bernburg (Saale)Location

Historic Weather in Bernburg (Saale) — Graph

°F

Bernburg (Saale) temperature yesterday

Maximum temperature yesterday: 58 °F (at 5:00 PM)
Minimum temperature yesterday: 43 °F (at 4:00 AM)
Average temperature yesterday: 52 °F

Past Weeks' High & Low Weather Summary

 TemperatureHumidityPressure
High80 °F (May 12, 4:00 PM)97% (May 15, 5:00 AM)30.32 "Hg (May 15, 5:00 AM)
Low38 °F (May 15, 5:00 AM)27% (May 22, 3:00 PM)29.61 "Hg (May 19, 2:00 AM)
Average55 °F64%30.04 "Hg
* Reported May 12 4:00 PM — May 27 4:00 PM, Bernburg (Saale), Weather by CustomWeather, © 2015

Note: Actual official high and low records may vary slightly from our data, if they occured in-between our weather recording intervals... More about our weather records

Advertising

Bernburg (Saale) weather history for previous 24 hours

 ConditionsComfort  
Time TempWeatherWind HumidityBarometerVisibility
4:00 PM
Wed, May 27
57 °FOvercast.2 mph53%30.16 "Hg31 mi
3:00 PM57 °FOvercast.3 mph47%30.16 "Hg31 mi
2:00 PM58 °FOvercast.2 mph56%30.18 "Hg31 mi
1:00 PM55 °FOvercast.2 mph58%30.18 "Hg25 mi
12:00 PM52 °FOvercast.2 mph70%30.19 "Hg22 mi
10:00 AM52 °FOvercast.3 mph76%30.19 "Hg12 mi
9:00 AM49 °FOvercast.3 mph85%30.19 "Hg9 mi
8:00 AM49 °FPartly sunny.3 mph82%30.19 "Hg16 mi
7:00 AM47 °FSprinkles. Overcast.3 mph84%30.19 "Hg19 mi
6:00 AM47 °FOvercast.3 mph82%30.17 "Hg16 mi
4:00 AM46 °FOvercast.3 mph81%30.17 "Hg18 mi
3:00 AM44 °FPassing clouds.2 mph85%30.17 "Hg17 mi
2:00 AM45 °FClear.2 mph84%30.17 "Hg17 mi
1:00 AM47 °FPassing clouds.2 mph80%30.16 "Hg19 mi
12:00 AM49 °FOvercast.2 mph77%30.14 "Hg22 mi
11:00 PM
Tue, May 26
50 °FOvercast.2 mph76%30.13 "Hg25 mi
10:00 PM50 °FPassing clouds.2 mph77%30.12 "Hg22 mi
9:00 PM52 °FPartly sunny.2 mph70%30.10 "Hg31 mi
8:00 PM55 °FPartly sunny.2 mph61%30.09 "Hg31 mi
7:00 PM58 °FPartly sunny.3 mph54%30.08 "Hg31 mi
6:00 PM58 °FOvercast.3 mph52%30.06 "Hg31 mi
Weather by CustomWeather, © 2015

See weather overviewHow to use our weather pages